Orbital Elements at Epoch 2459200.5 (2020-Dec-17.0) TDB
Reference: JPL 17 (heliocentric ecliptic J2000)
Element | Value | Uncertainty (1-sigma) | Units |
e | .209001629180614 | 5.3447e-08 | |
a | 2.58416859879517 | 1.2859e-08 | au |
q | 2.044073151569595 | 1.3536e-07 | au |
i | 14.61141296083701 | 6.1974e-06 | deg |
node | 47.27374643565383 | 1.4107e-05 | deg |
peri | 309.7602733708498 | 1.9906e-05 | deg |
M | 44.6805734920906 | 1.3775e-05 | deg |
tp | 2459012.180222547746 (2020-Jun-11.68022255) | 5.7951e-05 | TDB |
period | 1517.328775889874 4.15 | 1.1326e-05 3.101e-08 | d yr |
n | .2372590606072631 | 1.7709e-09 | deg/d |
Q | 3.124264046020745 | 1.5547e-08 | au |
|
| | Orbit Determination Parameters
Additional Information
|